| time (UTC) | temp C | wind direction | speed KPH | gust KPH | rain 1hr cm | rain 24hr cm | rain mn cm | humidity % | barometer mb |
| 20260905062548 | 16 | 282 | 4.8 | 0.0 | 0.00 | 0.00 | 0.03 | 96 | 1011.5 |
| 20260905062049 | 16 | 297 | 3.2 | 0.0 | 0.00 | 0.00 | 0.03 | 96 | 1011.5 |
| 20260905061551 | 16 | 261 | 1.6 | 0.0 | 0.00 | 0.00 | 0.03 | 96 | 1011.5 |
| 20260905061049 | 16 | 209 | 1.6 | 0.0 | 0.00 | 0.00 | 0.03 | 96 | 1011.5 |
| 20260905060548 | 16 | 206 | 1.6 | 0.0 | 0.00 | 0.00 | 0.03 | 95 | 1011.5 |
| 20260905060048 | 16 | 190 | 3.2 | 0.0 | 0.00 | 0.00 | 0.03 | 95 | 1011.5 |
| 20260905055549 | 17 | 243 | 4.8 | 0.0 | 0.00 | 0.00 | 0.03 | 96 | 1011.4 |
| 20260905055049 | 17 | 294 | 4.8 | 0.0 | 0.00 | 0.00 | 0.03 | 96 | 1011.4 |
| 20260905054554 | 16 | 261 | 4.8 | 0.0 | 0.00 | 0.00 | 0.03 | 95 | 1011.4 |
| 20260905054050 | 17 | 304 | 6.4 | 0.0 | 0.00 | 0.00 | 0.03 | 95 | 1011.4 |
| 20260905053547 | 17 | 264 | 4.8 | 0.0 | 0.00 | 0.00 | 0.03 | 95 | 1011.4 |
| 20260905053048 | 17 | 210 | 3.2 | 0.0 | 0.00 | 0.00 | 0.03 | 95 | 1011.4 |
| 20260905052549 | 17 | 261 | 3.2 | 0.0 | 0.00 | 0.00 | 0.03 | 95 | 1011.4 |
| 20260905052049 | 17 | 242 | 3.2 | 0.0 | 0.00 | 0.00 | 0.03 | 95 | 1011.4 |
| 20260905051547 | 17 | 277 | 3.2 | 0.0 | 0.00 | 0.00 | 0.03 | 95 | 1011.4 |
| 20260905051047 | 17 | 260 | 3.2 | 0.0 | 0.00 | 0.00 | 0.03 | 95 | 1011.7 |
| 20260905050547 | 17 | 244 | 1.6 | 0.0 | 0.00 | 0.00 | 0.03 | 95 | 1011.7 |
| 20260905050047 | 17 | 169 | 1.6 | 0.0 | 0.00 | 0.00 | 0.03 | 95 | 1011.7 |
| 20260905045546 | 17 | 161 | 3.2 | 0.0 | 0.00 | 0.00 | 0.03 | 95 | 1011.5 |
| 20260905045046 | 17 | 238 | 3.2 | 0.0 | 0.00 | 0.00 | 0.03 | 95 | 1011.5 |
| 20260905044547 | 17 | 254 | 4.8 | 0.0 | 0.00 | 0.00 | 0.03 | 95 | 1011.5 |
| 20260905044045 | 17 | 267 | 3.2 | 0.0 | 0.00 | 0.00 | 0.03 | 95 | 1011.4 |
| 20260905043546 | 17 | 283 | 3.2 | 0.0 | 0.00 | 0.00 | 0.03 | 95 | 1011.4 |
| 20260905043046 | 17 | 321 | 1.6 | 0.0 | 0.00 | 0.00 | 0.03 | 95 | 1011.4 |
| 20260905042549 | 17 | 284 | 3.2 | 0.0 | 0.00 | 0.00 | 0.03 | 95 | 1011.2 |
| 20260905042045 | 17 | 234 | 3.2 | 0.0 | 0.00 | 0.00 | 0.03 | 95 | 1011.2 |
| 20260905041546 | 17 | 301 | 4.8 | 0.0 | 0.00 | 0.00 | 0.03 | 94 | 1011.2 |
| 20260905041045 | 17 | 255 | 6.4 | 0.0 | 0.00 | 0.00 | 0.03 | 94 | 1011.1 |
| 20260905040545 | 17 | 278 | 4.8 | 0.0 | 0.00 | 0.00 | 0.03 | 94 | 1011.1 |
| 20260905040051 | 17 | 257 | 3.2 | 0.0 | 0.00 | 0.00 | 0.03 | 94 | 1011.1 |
| 20260905035545 | 17 | 285 | 3.2 | 0.0 | 0.00 | 0.00 | 0.03 | 94 | 1010.9 |
| 20260905035045 | 17 | 293 | 4.8 | 0.0 | 0.00 | 0.00 | 0.03 | 94 | 1010.9 |
| 20260905034545 | 17 | 297 | 4.8 | 0.0 | 0.00 | 0.00 | 0.03 | 94 | 1010.9 |
| 20260905034046 | 17 | 275 | 4.8 | 0.0 | 0.00 | 0.00 | 0.03 | 94 | 1011.0 |
| 20260905033544 | 17 | 274 | 4.8 | 0.0 | 0.00 | 0.00 | 0.03 | 93 | 1011.0 |
| 20260905033044 | 17 | 297 | 4.8 | 0.0 | 0.00 | 0.00 | 0.03 | 93 | 1011.0 |
| 20260905032544 | 17 | 263 | 4.8 | 0.0 | 0.00 | 0.00 | 0.03 | 93 | 1010.7 |
| 20260905032044 | 17 | 275 | 4.8 | 0.0 | 0.00 | 0.00 | 0.03 | 93 | 1010.7 |
| 20260905031544 | 17 | 264 | 4.8 | 0.0 | 0.00 | 0.00 | 0.03 | 93 | 1010.7 |
| 20260905031043 | 17 | 252 | 4.8 | 0.0 | 0.00 | 0.00 | 0.03 | 93 | 1010.7 |
| 20260905030543 | 17 | 289 | 4.8 | 0.0 | 0.00 | 0.00 | 0.03 | 93 | 1010.7 |
| 20260905030047 | 17 | 304 | 4.8 | 0.0 | 0.00 | 0.00 | 0.03 | 93 | 1010.7 |
| 20260905025543 | 17 | 316 | 4.8 | 0.0 | 0.00 | 0.00 | 0.03 | 93 | 1010.6 |
| 20260905025043 | 17 | 272 | 4.8 | 0.0 | 0.00 | 0.00 | 0.03 | 93 | 1010.6 |
| 20260905024543 | 17 | 250 | 3.2 | 0.0 | 0.00 | 0.00 | 0.03 | 93 | 1010.6 |
| 20260905024042 | 17 | 257 | 4.8 | 0.0 | 0.00 | 0.00 | 0.03 | 93 | 1010.6 |
| 20260905023542 | 17 | 277 | 6.4 | 0.0 | 0.00 | 0.00 | 0.03 | 93 | 1010.6 |
| 20260905023043 | 17 | 242 | 6.4 | 0.0 | 0.00 | 0.00 | 0.03 | 92 | 1010.6 |
| 20260905022542 | 17 | 266 | 4.8 | 0.0 | 0.00 | 0.00 | 0.03 | 92 | 1010.6 |
| 20260905022042 | 17 | 310 | 3.2 | 0.0 | 0.00 | 0.00 | 0.03 | 91 | 1010.6 |
| 20260905021542 | 17 | 317 | 4.8 | 0.0 | 0.00 | 0.00 | 0.03 | 91 | 1010.6 |
| 20260905021042 | 17 | 298 | 4.8 | 0.0 | 0.00 | 0.00 | 0.03 | 91 | 1010.7 |
| 20260905020542 | 17 | 311 | 4.8 | 0.0 | 0.00 | 0.00 | 0.03 | 91 | 1010.7 |
| 20260905020042 | 17 | 280 | 4.8 | 0.0 | 0.00 | 0.00 | 0.03 | 90 | 1010.7 |
| 20260905015541 | 17 | 274 | 4.8 | 0.0 | 0.00 | 0.00 | 0.03 | 90 | 1010.7 |
| 20260905015042 | 18 | 275 | 4.8 | 0.0 | 0.00 | 0.00 | 0.03 | 89 | 1010.7 |
| 20260905014541 | 18 | 304 | 6.4 | 0.0 | 0.00 | 0.00 | 0.03 | 89 | 1010.7 |
| 20260905014041 | 18 | 312 | 4.8 | 0.0 | 0.00 | 0.00 | 0.03 | 88 | 1010.7 |
| 20260905013545 | 18 | 291 | 4.8 | 0.0 | 0.00 | 0.00 | 0.03 | 87 | 1010.7 |
| 20260905013040 | 18 | 144 | 4.8 | 0.0 | 0.00 | 0.00 | 0.03 | 86 | 1010.7 |
| 20260905012543 | 19 | 279 | 4.8 | 0.0 | 0.00 | 0.00 | 0.03 | 85 | 1010.6 |
| 20260905012041 | 20 | 262 | 3.2 | 0.0 | 0.00 | 0.00 | 0.03 | 84 | 1010.6 |
| 20260905011541 | 20 | 281 | 3.2 | 0.0 | 0.00 | 0.00 | 0.03 | 83 | 1010.6 |
| 20260905011041 | 20 | 286 | 3.2 | 0.0 | 0.00 | 0.00 | 0.03 | 83 | 1010.8 |
| 20260905010541 | 20 | 239 | 3.2 | 0.0 | 0.00 | 0.00 | 0.03 | 83 | 1010.8 |
| 20260905010044 | 20 | 190 | 3.2 | 0.0 | 0.00 | 0.00 | 0.03 | 82 | 1010.8 |
| 20260905005539 | 20 | 160 | 4.8 | 0.0 | 0.00 | 0.00 | 0.03 | 82 | 1010.8 |
| 20260905005038 | 20 | 204 | 4.8 | 0.0 | 0.00 | 0.00 | 0.03 | 81 | 1010.8 |
| 20260905004538 | 21 | 215 | 4.8 | 0.0 | 0.00 | 0.00 | 0.03 | 80 | 1010.8 |
| 20260905004039 | 21 | 263 | 3.2 | 0.0 | 0.00 | 0.00 | 0.03 | 80 | 1010.7 |
| 20260905003540 | 21 | 209 | 4.8 | 0.0 | 0.00 | 0.00 | 0.03 | 80 | 1010.7 |
| 20260905003044 | 21 | 263 | 4.8 | 0.0 | 0.00 | 0.00 | 0.03 | 81 | 1010.7 |
| 20260905002537 | 21 | 217 | 4.8 | 0.0 | 0.00 | 0.00 | 0.03 | 82 | 1010.9 |
| 20260905002037 | 21 | 207 | 4.8 | 0.0 | 0.00 | 0.00 | 0.03 | 81 | 1010.9 |
| 20260905001536 | 21 | 243 | 4.8 | 0.0 | 0.00 | 0.00 | 0.03 | 80 | 1010.9 |
| 20260905001036 | 21 | 172 | 6.4 | 0.0 | 0.00 | 0.00 | 0.03 | 81 | 1010.8 |
| 20260905000537 | 21 | 161 | 4.8 | 0.0 | 0.00 | 0.00 | 0.03 | 79 | 1010.8 |
| 20260905000037 | 21 | 159 | 4.8 | 0.0 | 0.00 | 0.00 | 0.03 | 78 | 1010.8 |
| 20260904235535 | 21 | 190 | 4.8 | 0.0 | 0.00 | 0.00 | 0.03 | 78 | 1010.8 |
| 20260904235038 | 21 | 202 | 4.8 | 0.0 | 0.00 | 0.00 | 0.03 | 78 | 1010.8 |
| 20260904234536 | 21 | 156 | 4.8 | 0.0 | 0.00 | 0.00 | 0.03 | 78 | 1010.8 |
| 20260904234035 | 21 | 202 | 4.8 | 0.0 | 0.00 | 0.00 | 0.03 | 78 | 1010.8 |
| 20260904233535 | 22 | 292 | 4.8 | 0.0 | 0.00 | 0.00 | 0.03 | 77 | 1010.8 |
| 20260904233035 | 22 | 207 | 4.8 | 0.0 | 0.00 | 0.00 | 0.03 | 77 | 1010.8 |
| 20260904232535 | 22 | 219 | 3.2 | 0.0 | 0.00 | 0.00 | 0.03 | 77 | 1010.9 |
| 20260904232035 | 22 | 159 | 3.2 | 0.0 | 0.00 | 0.00 | 0.03 | 76 | 1010.9 |
| 20260904231537 | 22 | 175 | 3.2 | 0.0 | 0.00 | 0.00 | 0.03 | 74 | 1010.9 |
| 20260904231033 | 22 | 144 | 3.2 | 0.0 | 0.00 | 0.00 | 0.03 | 74 | 1011.0 |
| 20260904230533 | 22 | 202 | 4.8 | 0.0 | 0.00 | 0.00 | 0.03 | 73 | 1011.0 |
| 20260904230057 | 22 | 179 | 4.8 | 0.0 | 0.00 | 0.00 | 0.03 | 73 | 1011.0 |
| 20260904225535 | 22 | 238 | 4.8 | 0.0 | 0.00 | 0.00 | 0.03 | 73 | 1011.0 |
| 20260904225033 | 22 | 198 | 4.8 | 0.0 | 0.00 | 0.00 | 0.03 | 73 | 1011.0 |
| 20260904224533 | 22 | 203 | 4.8 | 0.0 | 0.00 | 0.00 | 0.03 | 72 | 1011.0 |
| 20260904224034 | 22 | 189 | 4.8 | 0.0 | 0.00 | 0.00 | 0.03 | 73 | 1011.0 |
| 20260904223533 | 22 | 192 | 4.8 | 0.0 | 0.00 | 0.00 | 0.03 | 73 | 1011.0 |
| 20260904223032 | 22 | 159 | 3.2 | 0.0 | 0.00 | 0.00 | 0.03 | 72 | 1011.0 |
| 20260904222531 | 22 | 143 | 4.8 | 0.0 | 0.00 | 0.00 | 0.03 | 71 | 1011.1 |
| 20260904222031 | 22 | 181 | 3.2 | 0.0 | 0.00 | 0.00 | 0.03 | 66 | 1011.1 |
| 20260904221531 | 22 | 157 | 3.2 | 0.0 | 0.00 | 0.00 | 0.03 | 71 | 1011.1 |
| 20260904221031 | 22 | 208 | 4.8 | 0.0 | 0.00 | 0.00 | 0.03 | 71 | 1011.2 |
| 20260904220530 | 22 | 203 | 4.8 | 0.0 | 0.00 | 0.00 | 0.03 | 70 | 1011.2 |
| 20260904220030 | 22 | 174 | 4.8 | 0.0 | 0.00 | 0.00 | 0.03 | 71 | 1011.2 |
| 20260904215529 | 22 | 148 | 4.8 | 0.0 | 0.00 | 0.00 | 0.03 | 72 | 1011.4 |
| 20260904215028 | 22 | 205 | 4.8 | 0.0 | 0.00 | 0.00 | 0.03 | 74 | 1011.4 |
| 20260904214528 | 22 | 178 | 4.8 | 0.0 | 0.00 | 0.00 | 0.03 | 74 | 1011.4 |
| 20260904214026 | 22 | 187 | 4.8 | 0.0 | 0.00 | 0.00 | 0.03 | 75 | 1011.5 |
| 20260904213527 | 21 | 148 | 4.8 | 0.0 | 0.00 | 0.00 | 0.03 | 75 | 1011.5 |
| 20260904213027 | 21 | 161 | 4.8 | 0.0 | 0.00 | 0.00 | 0.03 | 75 | 1011.5 |
| 20260904212527 | 21 | 175 | 4.8 | 0.0 | 0.00 | 0.00 | 0.03 | 74 | 1011.5 |
| 20260904212026 | 21 | 198 | 4.8 | 0.0 | 0.00 | 0.00 | 0.03 | 75 | 1011.5 |
| 20260904211526 | 21 | 205 | 4.8 | 0.0 | 0.00 | 0.00 | 0.03 | 74 | 1011.5 |
| 20260904211027 | 21 | 163 | 3.2 | 0.0 | 0.00 | 0.00 | 0.03 | 73 | 1011.5 |
| 20260904210525 | 21 | 202 | 4.8 | 0.0 | 0.00 | 0.00 | 0.03 | 74 | 1011.5 |
| 20260904210024 | 21 | 212 | 4.8 | 0.0 | 0.00 | 0.00 | 0.03 | 74 | 1011.5 |
| 20260904205523 | 21 | 168 | 4.8 | 0.0 | 0.00 | 0.00 | 0.03 | 77 | 1011.5 |
| 20260904205023 | 21 | 213 | 4.8 | 0.0 | 0.00 | 0.00 | 0.03 | 76 | 1011.5 |
| 20260904204523 | 21 | 198 | 4.8 | 0.0 | 0.00 | 0.00 | 0.03 | 77 | 1011.5 |
| 20260904204020 | 21 | 165 | 4.8 | 0.0 | 0.00 | 0.00 | 0.03 | 77 | 1011.5 |
| 20260904203520 | 21 | 144 | 4.8 | 0.0 | 0.00 | 0.00 | 0.03 | 77 | 1011.5 |
| 20260904203020 | 21 | 161 | 4.8 | 0.0 | 0.00 | 0.00 | 0.03 | 78 | 1011.5 |
| 20260904202519 | 21 | 185 | 4.8 | 0.0 | 0.00 | 0.00 | 0.03 | 77 | 1011.8 |
| 20260904202019 | 21 | 184 | 6.4 | 0.0 | 0.00 | 0.00 | 0.03 | 78 | 1011.8 |
| 20260904201519 | 21 | 213 | 4.8 | 0.0 | 0.00 | 0.00 | 0.03 | 77 | 1011.8 |
| 20260904201018 | 21 | 196 | 4.8 | 0.0 | 0.00 | 0.00 | 0.03 | 79 | 1011.9 |
| 20260904200518 | 21 | 165 | 4.8 | 0.0 | 0.00 | 0.00 | 0.03 | 80 | 1011.9 |
| 20260904200018 | 21 | 171 | 4.8 | 0.0 | 0.00 | 0.00 | 0.03 | 79 | 1011.9 |
| 20260904195518 | 21 | 167 | 4.8 | 0.0 | 0.00 | 0.00 | 0.03 | 79 | 1012.0 |
| 20260904195017 | 21 | 215 | 4.8 | 0.0 | 0.00 | 0.00 | 0.03 | 78 | 1012.0 |
| 20260904194518 | 21 | 159 | 4.8 | 0.0 | 0.00 | 0.00 | 0.03 | 78 | 1012.0 |
| 20260904194017 | 21 | 176 | 4.8 | 0.0 | 0.00 | 0.00 | 0.03 | 78 | 1012.0 |
| 20260904193517 | 21 | 163 | 4.8 | 0.0 | 0.00 | 0.00 | 0.03 | 78 | 1012.0 |
| 20260904193033 | 21 | 139 | 4.8 | 0.0 | 0.00 | 0.00 | 0.03 | 79 | 1012.0 |
| 20260904192516 | 20 | 109 | 4.8 | 0.0 | 0.00 | 0.00 | 0.03 | 78 | 1012.1 |
| 20260904192016 | 21 | 189 | 4.8 | 0.0 | 0.00 | 0.00 | 0.03 | 78 | 1012.1 |
| 20260904191519 | 21 | 169 | 4.8 | 0.0 | 0.00 | 0.00 | 0.03 | 78 | 1012.1 |
| 20260904191016 | 21 | 161 | 4.8 | 0.0 | 0.00 | 0.00 | 0.03 | 77 | 1012.5 |
| 20260904190516 | 21 | 192 | 4.8 | 0.0 | 0.00 | 0.00 | 0.03 | 78 | 1012.5 |
| 20260904190032 | 21 | 134 | 4.8 | 0.0 | 0.00 | 0.00 | 0.03 | 79 | 1012.5 |
| 20260904185514 | 20 | 182 | 4.8 | 0.0 | 0.00 | 0.00 | 0.03 | 79 | 1012.7 |
| 20260904185018 | 20 | 205 | 4.8 | 0.0 | 0.00 | 0.00 | 0.03 | 80 | 1012.7 |
| 20260904184514 | 20 | 229 | 4.8 | 0.0 | 0.00 | 0.00 | 0.03 | 79 | 1012.7 |
| 20260904184013 | 20 | 211 | 4.8 | 0.0 | 0.00 | 0.00 | 0.03 | 80 | 1012.7 |
| 20260904183513 | 20 | 210 | 6.4 | 0.0 | 0.00 | 0.00 | 0.03 | 79 | 1012.7 |
| 20260904183013 | 20 | 195 | 4.8 | 0.0 | 0.00 | 0.00 | 0.03 | 79 | 1012.7 |
| 20260904182512 | 21 | 111 | 4.8 | 0.0 | 0.00 | 0.00 | 0.03 | 80 | 1012.6 |
| 20260904182012 | 21 | 162 | 4.8 | 0.0 | 0.00 | 0.00 | 0.03 | 79 | 1012.6 |
| 20260904181512 | 21 | 104 | 4.8 | 0.0 | 0.00 | 0.00 | 0.03 | 79 | 1012.6 |
| 20260904181012 | 21 | 142 | 3.2 | 0.0 | 0.00 | 0.00 | 0.03 | 80 | 1012.6 |
| 20260904180513 | 21 | 197 | 3.2 | 0.0 | 0.00 | 0.00 | 0.03 | 81 | 1012.6 |
| 20260904180010 | 20 | 175 | 3.2 | 0.0 | 0.00 | 0.00 | 0.03 | 81 | 1012.6 |
| 20260904175510 | 20 | 181 | 3.2 | 0.0 | 0.00 | 0.00 | 0.03 | 81 | 1012.6 |
| 20260904175011 | 20 | 163 | 3.2 | 0.0 | 0.00 | 0.00 | 0.03 | 83 | 1012.6 |
| 20260904174508 | 20 | 132 | 4.8 | 0.0 | 0.00 | 0.00 | 0.03 | 84 | 1012.6 |
| 20260904174007 | 20 | 171 | 4.8 | 0.0 | 0.00 | 0.00 | 0.03 | 83 | 1012.6 |
| 20260904173505 | 20 | 277 | 3.2 | 0.0 | 0.00 | 0.00 | 0.03 | 83 | 1012.6 |
| 20260904173005 | 19 | 181 | 3.2 | 0.0 | 0.00 | 0.00 | 0.03 | 82 | 1012.6 |
| 20260904172505 | 19 | 178 | 3.2 | 0.0 | 0.00 | 0.00 | 0.03 | 82 | 1012.5 |
| 20260904172005 | 19 | 218 | 3.2 | 0.0 | 0.00 | 0.00 | 0.03 | 85 | 1012.5 |
| 20260904171502 | 19 | 217 | 1.6 | 0.0 | 0.00 | 0.00 | 0.03 | 86 | 1012.5 |
| 20260904171002 | 18 | 134 | 1.6 | 0.0 | 0.00 | 0.00 | 0.03 | 86 | 1012.5 |
| 20260904170502 | 18 | 153 | 3.2 | 0.0 | 0.00 | 0.00 | 0.03 | 86 | 1012.5 |
| 20260904170001 | 18 | 117 | 3.2 | 0.0 | 0.00 | 0.00 | 0.03 | 85 | 1012.5 |
| 20260904165600 | 18 | 125 | 3.2 | 0.0 | 0.00 | 0.00 | 0.03 | 87 | 1012.2 |
| 20260904165100 | 18 | 175 | 3.2 | 0.0 | 0.00 | 0.00 | 0.03 | 87 | 1012.2 |
| 20260904164604 | 18 | 195 | 3.2 | 0.0 | 0.00 | 0.00 | 0.03 | 87 | 1012.2 |
| 20260904164057 | 18 | 84 | 3.2 | 0.0 | 0.00 | 0.00 | 0.03 | 86 | 1012.1 |
| 20260904163557 | 18 | 188 | 3.2 | 0.0 | 0.00 | 0.00 | 0.03 | 87 | 1012.1 |
| 20260904163106 | 18 | 70 | 1.6 | 0.0 | 0.00 | 0.00 | 0.03 | 88 | 1012.1 |
| 20260904162556 | 18 | 33 | 1.6 | 0.0 | 0.00 | 0.00 | 0.03 | 88 | 1012.1 |
| 20260904162055 | 18 | 111 | 3.2 | 0.0 | 0.00 | 0.00 | 0.03 | 87 | 1012.1 |
| 20260904161555 | 18 | 134 | 4.8 | 0.0 | 0.00 | 0.00 | 0.03 | 88 | 1012.1 |
| 20260904161055 | 18 | 69 | 3.2 | 0.0 | 0.00 | 0.00 | 0.03 | 89 | 1011.8 |
| 20260904160553 | 17 | 109 | 3.2 | 0.0 | 0.00 | 0.00 | 0.03 | 90 | 1011.8 |
| 20260904160104 | 17 | 94 | 3.2 | 0.0 | 0.00 | 0.00 | 0.03 | 92 | 1011.8 |
| 20260904155551 | 17 | 101 | 1.6 | 0.0 | 0.00 | 0.00 | 0.03 | 93 | 1011.8 |
| 20260904155051 | 17 | 87 | 1.6 | 0.0 | 0.00 | 0.00 | 0.03 | 94 | 1011.8 |
| 20260904154549 | 17 | 144 | 0.0 | 0.0 | 0.00 | 0.00 | 0.03 | 96 | 1011.8 |
| 20260904154048 | 16 | 88 | 0.0 | 0.0 | 0.00 | 0.00 | 0.03 | 96 | 1011.9 |
| 20260904153547 | 16 | 107 | 1.6 | 0.0 | 0.00 | 0.00 | 0.03 | 96 | 1011.9 |
| 20260904153101 | 16 | 148 | 3.2 | 0.0 | 0.00 | 0.00 | 0.03 | 95 | 1011.9 |
| 20260904152547 | 16 | 142 | 1.6 | 0.0 | 0.00 | 0.00 | 0.03 | 95 | 1011.8 |
| 20260904152046 | 16 | 104 | 0.0 | 0.0 | 0.00 | 0.00 | 0.03 | 95 | 1011.8 |
| 20260904151546 | 16 | 115 | 0.0 | 0.0 | 0.00 | 0.00 | 0.03 | 96 | 1011.8 |
| 20260904151046 | 16 | 136 | 0.0 | 0.0 | 0.00 | 0.00 | 0.03 | 96 | 1011.8 |
| 20260904150550 | 16 | 112 | 0.0 | 0.0 | 0.00 | 0.00 | 0.03 | 96 | 1011.8 |
| 20260904150100 | 16 | 83 | 0.0 | 0.0 | 0.00 | 0.00 | 0.03 | 96 | 1011.8 |
| 20260904145546 | 16 | 85 | 0.0 | 0.0 | 0.00 | 0.00 | 0.03 | 96 | 1011.7 |
| 20260904145048 | 16 | 62 | 0.0 | 0.0 | 0.00 | 0.00 | 0.03 | 96 | 1011.7 |
| 20260904144547 | 16 | 80 | 0.0 | 0.0 | 0.00 | 0.00 | 0.03 | 96 | 1011.7 |
| 20260904144044 | 16 | 153 | 0.0 | 0.0 | 0.00 | 0.00 | 0.03 | 96 | 1011.4 |
| 20260904143544 | 16 | 153 | 0.0 | 0.0 | 0.00 | 0.00 | 0.03 | 97 | 1011.4 |
| 20260904143043 | 16 | 153 | 0.0 | 0.0 | 0.00 | 0.00 | 0.03 | 97 | 1011.4 |
| 20260904142542 | 16 | 153 | 0.0 | 0.0 | 0.00 | 0.00 | 0.03 | 97 | 1011.2 |
| 20260904142041 | 16 | 153 | 0.0 | 0.0 | 0.00 | 0.00 | 0.03 | 97 | 1011.2 |
| 20260904141540 | 16 | 207 | 0.0 | 0.0 | 0.00 | 0.00 | 0.03 | 97 | 1011.2 |
| 20260904141039 | 16 | 207 | 0.0 | 0.0 | 0.00 | 0.00 | 0.03 | 97 | 1011.2 |
| 20260904140542 | 15 | 207 | 0.0 | 0.0 | 0.00 | 0.00 | 0.03 | 97 | 1011.2 |
| 20260904140038 | 15 | 207 | 0.0 | 0.0 | 0.00 | 0.00 | 0.03 | 96 | 1011.2 |
| 20260904135539 | 15 | 207 | 0.0 | 0.0 | 0.00 | 0.00 | 0.03 | 96 | 1011.1 |
| 20260904135038 | 15 | 207 | 0.0 | 0.0 | 0.00 | 0.00 | 0.03 | 96 | 1011.1 |
| 20260904134546 | 15 | 207 | 0.0 | 0.0 | 0.00 | 0.00 | 0.03 | 97 | 1011.1 |
| 20260904134037 | 15 | 207 | 0.0 | 0.0 | 0.00 | 0.00 | 0.00 | 96 | 1011.0 |
| 20260904133537 | 15 | 207 | 0.0 | 0.0 | 0.00 | 0.00 | 0.00 | 97 | 1011.0 |
| 20260904133037 | 15 | 207 | 0.0 | 0.0 | 0.00 | 0.00 | 0.00 | 97 | 1011.0 |
| 20260904132537 | 15 | 207 | 0.0 | 0.0 | 0.00 | 0.00 | 0.00 | 97 | 1011.0 |
| 20260904132039 | 15 | 207 | 0.0 | 0.0 | 0.00 | 0.00 | 0.00 | 97 | 1011.0 |
| 20260904131535 | 15 | 207 | 0.0 | 0.0 | 0.00 | 0.00 | 0.00 | 97 | 1011.0 |
| 20260904131036 | 15 | 207 | 0.0 | 0.0 | 0.00 | 0.00 | 0.00 | 97 | 1010.8 |
| 20260904130538 | 15 | 207 | 0.0 | 0.0 | 0.00 | 0.00 | 0.00 | 97 | 1010.8 |
| 20260904130051 | 15 | 207 | 0.0 | 0.0 | 0.00 | 0.00 | 0.00 | 96 | 1010.8 |
| 20260904125535 | 15 | 207 | 0.0 | 0.0 | 0.00 | 0.00 | 0.00 | 97 | 1010.6 |
| 20260904125036 | 15 | 207 | 0.0 | 0.0 | 0.00 | 0.00 | 0.00 | 97 | 1010.6 |
| 20260904124538 | 15 | 207 | 0.0 | 0.0 | 0.00 | 0.00 | 0.00 | 97 | 1010.6 |
| 20260904124040 | 15 | 207 | 0.0 | 0.0 | 0.00 | 0.00 | 0.00 | 97 | 1010.6 |
| 20260904123536 | 15 | 270 | 0.0 | 0.0 | 0.00 | 0.00 | 0.00 | 96 | 1010.6 |
| 20260904123033 | 15 | 270 | 0.0 | 0.0 | 0.00 | 0.00 | 0.00 | 96 | 1010.6 |
| 20260904122533 | 15 | 270 | 0.0 | 0.0 | 0.00 | 0.00 | 0.00 | 96 | 1010.6 |
| 20260904122033 | 15 | 270 | 0.0 | 0.0 | 0.00 | 0.00 | 0.00 | 96 | 1010.6 |
| 20260904121535 | 15 | 270 | 0.0 | 0.0 | 0.00 | 0.00 | 0.00 | 96 | 1010.6 |
| 20260904121036 | 15 | 270 | 0.0 | 0.0 | 0.00 | 0.00 | 0.00 | 96 | 1010.5 |
| 20260904120532 | 15 | 270 | 0.0 | 0.0 | 0.00 | 0.00 | 0.00 | 96 | 1010.5 |
| 20260904120037 | 15 | 270 | 0.0 | 0.0 | 0.00 | 0.00 | 0.00 | 96 | 1010.5 |
| 20260904115532 | 15 | 270 | 0.0 | 0.0 | 0.00 | 0.00 | 0.00 | 96 | 1010.5 |
| 20260904115032 | 15 | 270 | 0.0 | 0.0 | 0.00 | 0.00 | 0.00 | 96 | 1010.5 |
| 20260904114532 | 15 | 270 | 0.0 | 0.0 | 0.00 | 0.00 | 0.00 | 96 | 1010.5 |
| 20260904114031 | 15 | 270 | 0.0 | 0.0 | 0.00 | 0.00 | 0.00 | 96 | 1010.5 |
| 20260904113531 | 15 | 270 | 0.0 | 0.0 | 0.00 | 0.00 | 0.00 | 96 | 1010.5 |
| 20260904113034 | 15 | 270 | 0.0 | 0.0 | 0.00 | 0.00 | 0.00 | 96 | 1010.5 |
| 20260904112531 | 15 | 270 | 0.0 | 0.0 | 0.00 | 0.00 | 0.00 | 96 | 1010.5 |
| 20260904112029 | 15 | 270 | 0.0 | 0.0 | 0.00 | 0.00 | 0.00 | 96 | 1010.5 |
| 20260904111529 | 15 | 270 | 0.0 | 0.0 | 0.00 | 0.00 | 0.00 | 96 | 1010.5 |
| 20260904111032 | 15 | 270 | 0.0 | 0.0 | 0.00 | 0.00 | 0.00 | 96 | 1010.5 |
| 20260904110530 | 15 | 270 | 0.0 | 0.0 | 0.00 | 0.00 | 0.00 | 96 | 1010.5 |
| 20260904110029 | 15 | 270 | 0.0 | 0.0 | 0.00 | 0.00 | 0.00 | 96 | 1010.5 |
| 20260904105529 | 15 | 270 | 0.0 | 0.0 | 0.00 | 0.00 | 0.00 | 96 | 1010.6 |
| 20260904105029 | 15 | 270 | 0.0 | 0.0 | 0.00 | 0.00 | 0.00 | 96 | 1010.6 |
| 20260904104530 | 15 | 270 | 0.0 | 0.0 | 0.00 | 0.00 | 0.00 | 96 | 1010.6 |
| 20260904104028 | 14 | 270 | 0.0 | 0.0 | 0.00 | 0.00 | 0.00 | 96 | 1010.5 |
| 20260904103527 | 14 | 270 | 0.0 | 0.0 | 0.00 | 0.00 | 0.00 | 95 | 1010.5 |
| 20260904103028 | 14 | 270 | 0.0 | 0.0 | 0.00 | 0.00 | 0.00 | 96 | 1010.5 |
| 20260904102529 | 14 | 270 | 0.0 | 0.0 | 0.00 | 0.00 | 0.00 | 96 | 1010.5 |
| 20260904102028 | 14 | 270 | 0.0 | 0.0 | 0.00 | 0.00 | 0.00 | 95 | 1010.5 |
| 20260904101530 | 14 | 270 | 0.0 | 0.0 | 0.00 | 0.00 | 0.00 | 95 | 1010.5 |
| 20260904101028 | 14 | 270 | 0.0 | 0.0 | 0.00 | 0.00 | 0.00 | 95 | 1010.5 |
| 20260904100530 | 14 | 270 | 0.0 | 0.0 | 0.00 | 0.00 | 0.00 | 95 | 1010.5 |
| 20260904100030 | 14 | 270 | 0.0 | 0.0 | 0.00 | 0.00 | 0.00 | 95 | 1010.5 |
| 20260904095531 | 14 | 270 | 0.0 | 0.0 | 0.00 | 0.00 | 0.00 | 95 | 1010.5 |
| 20260904095026 | 14 | 270 | 0.0 | 0.0 | 0.00 | 0.00 | 0.00 | 95 | 1010.5 |
| 20260904094525 | 15 | 270 | 0.0 | 0.0 | 0.00 | 0.00 | 0.00 | 95 | 1010.5 |
| 20260904094025 | 15 | 270 | 0.0 | 0.0 | 0.00 | 0.00 | 0.00 | 95 | 1010.6 |
| 20260904093525 | 15 | 270 | 0.0 | 0.0 | 0.00 | 0.00 | 0.00 | 95 | 1010.6 |
| 20260904093026 | 15 | 270 | 0.0 | 0.0 | 0.00 | 0.00 | 0.00 | 95 | 1010.6 |
| 20260904092524 | 15 | 270 | 0.0 | 0.0 | 0.00 | 0.00 | 0.00 | 95 | 1010.6 |
| 20260904092026 | 15 | 270 | 0.0 | 0.0 | 0.00 | 0.00 | 0.00 | 95 | 1010.6 |
| 20260904091525 | 14 | 270 | 0.0 | 0.0 | 0.00 | 0.00 | 0.00 | 95 | 1010.6 |
| 20260904091025 | 14 | 270 | 0.0 | 0.0 | 0.00 | 0.00 | 0.00 | 95 | 1010.6 |
| 20260904090524 | 15 | 270 | 0.0 | 0.0 | 0.00 | 0.00 | 0.00 | 95 | 1010.6 |
| 20260904090031 | 15 | 270 | 0.0 | 0.0 | 0.00 | 0.00 | 0.00 | 94 | 1010.6 |
| 20260904085524 | 15 | 270 | 0.0 | 0.0 | 0.00 | 0.00 | 0.00 | 94 | 1010.5 |
| 20260904085025 | 15 | 270 | 0.0 | 0.0 | 0.00 | 0.00 | 0.00 | 95 | 1010.5 |
| 20260904084523 | 15 | 270 | 0.0 | 0.0 | 0.00 | 0.00 | 0.00 | 95 | 1010.5 |
| 20260904084022 | 15 | 270 | 0.0 | 0.0 | 0.00 | 0.00 | 0.00 | 95 | 1010.6 |
| 20260904083522 | 15 | 270 | 0.0 | 0.0 | 0.00 | 0.00 | 0.00 | 94 | 1010.6 |
| 20260904083029 | 15 | 270 | 0.0 | 0.0 | 0.00 | 0.00 | 0.00 | 95 | 1010.6 |
| 20260904082523 | 15 | 270 | 0.0 | 0.0 | 0.00 | 0.00 | 0.00 | 95 | 1010.6 |
| 20260904082021 | 15 | 270 | 0.0 | 0.0 | 0.00 | 0.00 | 0.00 | 95 | 1010.6 |
| 20260904081521 | 15 | 270 | 0.0 | 0.0 | 0.00 | 0.00 | 0.00 | 95 | 1010.6 |
| 20260904081021 | 15 | 270 | 0.0 | 0.0 | 0.00 | 0.00 | 0.00 | 95 | 1010.7 |
| 20260904080521 | 15 | 270 | 0.0 | 0.0 | 0.00 | 0.00 | 0.00 | 95 | 1010.7 |
| 20260904080021 | 15 | 270 | 0.0 | 0.0 | 0.00 | 0.00 | 0.00 | 95 | 1010.7 |
| 20260904075520 | 15 | 270 | 0.0 | 0.0 | 0.00 | 0.00 | 0.00 | 95 | 1010.7 |
| 20260904075019 | 15 | 270 | 0.0 | 0.0 | 0.00 | 0.00 | 0.00 | 95 | 1010.7 |
| 20260904074518 | 15 | 270 | 0.0 | 0.0 | 0.00 | 0.00 | 0.00 | 94 | 1010.7 |
| 20260904074018 | 15 | 270 | 0.0 | 0.0 | 0.00 | 0.00 | 0.00 | 94 | 1010.7 |
| 20260904073519 | 15 | 270 | 0.0 | 0.0 | 0.00 | 0.00 | 0.00 | 94 | 1010.7 |
| 20260904073018 | 15 | 270 | 0.0 | 0.0 | 0.00 | 0.00 | 0.00 | 94 | 1010.7 |
| 20260904072517 | 15 | 270 | 0.0 | 0.0 | 0.00 | 0.00 | 0.00 | 94 | 1010.8 |
| 20260904072016 | 15 | 270 | 0.0 | 0.0 | 0.00 | 0.00 | 0.00 | 94 | 1010.8 |
| 20260904071520 | 15 | 270 | 0.0 | 0.0 | 0.00 | 0.00 | 0.00 | 94 | 1010.8 |
| 20260904071018 | 15 | 270 | 0.0 | 0.0 | 0.00 | 0.00 | 0.00 | 93 | 1010.6 |
| 20260904070514 | 15 | 270 | 0.0 | 0.0 | 0.00 | 0.00 | 0.00 | 93 | 1010.6 |
| 20260904070018 | 15 | 270 | 0.0 | 0.0 | 0.00 | 0.00 | 0.03 | 93 | 1010.6 |
| 20260904065514 | 15 | 270 | 0.0 | 0.0 | 0.00 | 0.00 | 0.03 | 93 | 1010.6 |
| 20260904065014 | 15 | 270 | 0.0 | 0.0 | 0.00 | 0.00 | 0.03 | 93 | 1010.6 |
| 20260904064514 | 15 | 270 | 0.0 | 0.0 | 0.00 | 0.00 | 0.03 | 93 | 1010.6 |
| 20260904064013 | 15 | 270 | 0.0 | 0.0 | 0.00 | 0.00 | 0.03 | 93 | 1010.6 |
| 20260904063512 | 15 | 270 | 0.0 | 0.0 | 0.00 | 0.00 | 0.03 | 93 | 1010.6 |